Location: Caltech
(34.1382°N, 118.1253°W)
Time: 23:41:57
(UTC-07:00)

Cosmos 1943 Rocket - Visible Passes

Search period start: 16 April 2014 00:00
Search period end: 26 April 2014 00:00
Orbit: 813 x 844 km, 71.0° (Epoch: 15 April)

Date Brightness Start Highest point End Pass type
(mag) Time Alt. Az. Time Alt. Az. Time Alt. Az.
16 Apr 2.6 04:29:25 24° S 04:32:47 61° ESE 04:38:18 10° NNE visible
17 Apr 2.8 04:11:25 32° SSE 04:13:47 53° ESE 04:19:13 10° NNE visible
18 Apr 3.0 03:53:19 37° SE 03:54:48 46° ESE 04:00:07 10° NE visible
18 Apr 3.6 05:34:53 11° WSW 05:38:44 21° WNW 05:42:57 10° N visible
19 Apr 3.1 03:35:09 38° ESE 03:35:49 39° ESE 03:41:00 10° NE visible
19 Apr 3.4 05:16:43 16° W 05:19:38 24° WNW 05:24:09 10° N visible
20 Apr 3.4 03:16:55 34° ESE 03:16:55 34° ESE 03:21:50 10° NE visible
20 Apr 3.2 04:58:28 22° W 05:00:33 28° WNW 05:05:18 10° N visible
21 Apr 3.7 02:58:36 29° E 02:58:36 29° E 03:02:39 10° NE visible
21 Apr 3.1 04:40:09 28° W 04:41:29 31° WNW 04:46:26 10° N visible
22 Apr 4.1 02:40:15 23° E 02:40:15 23° E 02:43:25 10° NE visible
22 Apr 2.8 04:21:47 35° WNW 04:22:25 36° WNW 04:27:33 10° N visible
23 Apr 4.4 02:21:50 19° ENE 02:21:50 19° ENE 02:24:09 10° NE visible
23 Apr 2.7 04:03:23 41° WNW 04:03:23 41° WNW 04:08:38 10° N visible
24 Apr 4.6 02:03:23 15° ENE 02:03:23 15° ENE 02:04:49 10° ENE visible
24 Apr 2.7 03:44:55 45° NW 03:44:55 45° NW 03:49:42 10° N visible
25 Apr 4.8 01:44:53 12° ENE 01:44:53 12° ENE 01:45:24 10° ENE visible
25 Apr 2.8 03:26:25 46° NNW 03:26:25 46° NNW 03:30:45 10° N visible
